Stations météo

réclame
Mon MeteoGroup
Schaffen, Belgique (6465): Température de l'air & dewpoint: 14.01.2019 12:00:00 - 20.01.2019 12:00:00 (CET)Schaffen, Belgique (6465): Vitesse du vent & gusts: 14.01.2019 12:00:00 - 20.01.2019 12:00:00 (CET)Schaffen, Belgique (6465): Direction du vent: 14.01.2019 12:00:00 - 20.01.2019 12:00:00 (CET)Schaffen, Belgique (6465): reduced air pressure: 14.01.2019 12:00:00 - 20.01.2019 12:00:00 (CET)Schaffen, Belgique (6465): visibility: 14.01.2019 12:00:00 - 20.01.2019 12:00:00 (CET)
Date & Time tt [°C] td [°C] ff [km/h] ff [knt] fx [km/h] fx [knt] dd ppp [hPa] vv [km]
20.01.2019 12:00:00 -0,4 -4,4 7 4 14 8 E 1017,6 20
20.01.2019 11:00:00 -2,0 -4,7 7 4 14 8 E 1017,2 20
20.01.2019 10:00:00 -4,6 -5,5 4 2 - - N 1016,7 10
20.01.2019 09:00:00 -4,9 -6,0 7 4 11 6 ENE 1015,8 10
20.01.2019 08:00:00 -4,9 -6,3 4 2 11 6 N 1015,1 11
20.01.2019 07:00:00 -5,0 -6,3 4 2 - - N 1014,7 9
20.01.2019 06:00:00 -4,4 -6,0 4 2 11 6 N 1014,2 14
20.01.2019 05:00:00 -3,9 -5,8 7 4 11 6 E 1014,2 15
20.01.2019 04:00:00 -3,4 -5,6 7 4 - - E 1014,2 18
20.01.2019 03:00:00 -3,1 -5,5 7 4 11 6 E 1014,1 17
20.01.2019 02:00:00 -3,0 -5,5 7 4 11 6 E 1014,0 17
20.01.2019 01:00:00 -2,4 -5,6 7 4 - - E 1014,0 20
20.01.2019 00:00:00 -1,8 -5,3 7 4 14 8 E 1013,8 20
19.01.2019 23:00:00 -1,3 -5,0 7 4 14 8 E 1013,6 20
19.01.2019 22:00:00 -1,1 -4,6 7 4 - - ESE 1013,3 20
19.01.2019 21:00:00 -0,7 -4,5 7 4 11 6 E 1013,3 20
19.01.2019 20:00:00 -0,6 -4,4 7 4 11 6 E 1013,3 20
19.01.2019 19:00:00 -0,1 -4,5 7 4 - - E 1013,3 20
19.01.2019 18:00:00 1,1 -4,5 7 4 14 8 E 1013,2 20
19.01.2019 17:00:00 2,0 -3,9 7 4 14 8 ESE 1013,2 20
19.01.2019 16:00:00 3,0 -3,3 11 6 - - ESE 1013,5 20
19.01.2019 15:00:00 2,9 -2,9 11 6 22 12 E 1014,1 20
19.01.2019 14:00:00 2,5 -2,9 11 6 22 12 SE 1014,8 20
19.01.2019 13:00:00 1,9 -2,6 11 6 - - SE 1015,6 19
19.01.2019 12:00:00 1,2 -2,5 11 6 18 10 SE 1016,2 19
19.01.2019 11:00:00 0,0 -2,6 11 6 14 8 SE 1016,7 19
19.01.2019 10:00:00 -1,6 -3,2 11 6 - - SE 1016,7 16
19.01.2019 09:00:00 -2,6 -4,1 7 4 14 8 SE 1016,8 14
19.01.2019 08:00:00 -2,5 -3,9 7 4 11 6 SE 1016,7 14
19.01.2019 07:00:00 -2,6 -3,7 7 4 - - SE 1017,0 14
19.01.2019 06:00:00 -2,3 -3,4 7 4 11 6 SE 1017,3 14
19.01.2019 05:00:00 -2,0 -3,0 7 4 11 6 SE 1017,7 13
19.01.2019 04:00:00 -1,8 -2,6 7 4 - - SE 1018,2 11
19.01.2019 03:00:00 -1,6 -2,3 7 4 11 6 ESE 1018,6 10
19.01.2019 02:00:00 -1,5 -2,1 4 2 7 4 N 1019,0 8
19.01.2019 01:00:00 -1,0 -0,9 4 2 - - N 1019,2 7
19.01.2019 00:00:00 -0,8 -0,8 4 2 7 4 N 1019,5 4,5
18.01.2019 23:00:00 -0,8 -0,8 4 2 7 4 N 1019,6 3,1
18.01.2019 22:00:00 -0,9 -0,9 4 2 - - N 1019,7 0,2
18.01.2019 21:00:00 -0,5 -0,5 4 2 7 4 N 1019,7 0,2
18.01.2019 20:00:00 -0,3 -0,3 4 2 7 4 N 1019,8 0,1
18.01.2019 19:00:00 -0,1 -0,1 4 2 - - N 1020,1 0,1
18.01.2019 18:00:00 0,1 0,1 4 2 7 4 N 1020,3 0,1
18.01.2019 17:00:00 0,1 0,1 5 3 7 4 NNE 1020,2 1,4
18.01.2019 16:00:00 1,4 1,4 4 2 - - N 1020,1 4,7
18.01.2019 15:00:00 0,7 0,7 11 6 18 10 S 1020,6 3,9
18.01.2019 14:00:00 -0,2 -0,2 11 6 14 8 S 1020,7 0,9
18.01.2019 13:00:00 - - - - - - - - -
18.01.2019 12:00:00 -1,1 -1,1 7 4 14 8 SSE 1021,6 0,1
18.01.2019 11:00:00 -1,1 -1,1 7 4 14 8 SSE 1021,1 0,1
18.01.2019 10:00:00 -2,1 -2,0 7 4 - - SSE 1021,1 0,1
18.01.2019 09:00:00 -2,5 -2,5 4 2 7 4 N 1020,5 0,1
18.01.2019 08:00:00 -2,0 -3,0 2 1 - - - - 0,4
18.01.2019 07:00:00 -1,0 -1,2 4 2 - - N 1019,2 5
18.01.2019 06:00:00 -0,3 -0,8 4 2 22 12 - 1018,7 10
18.01.2019 05:00:00 0,3 0,0 14 8 22 12 W 1018,5 8
18.01.2019 04:00:00 0,2 -0,1 14 8 - - W 1017,7 9
18.01.2019 03:00:00 0,4 0,0 14 8 22 12 W 1017,3 12
18.01.2019 02:00:00 0,7 0,2 11 6 25 14 W 1016,6 16
18.01.2019 01:00:00 1,1 0,7 14 8 - - W 1016,0 13
18.01.2019 00:00:00 0,8 0,4 14 8 22 12 W 1015,5 9
17.01.2019 23:00:00 0,9 0,5 16 9 29 16 W 1014,7 10
17.01.2019 22:00:00 1,0 0,4 11 6 - - W 1013,8 15
17.01.2019 21:00:00 1,3 0,4 14 8 25 14 WSW 1013,0 20
17.01.2019 20:00:00 1,4 0,7 14 8 29 16 WNW 1012,0 18
17.01.2019 19:00:00 1,4 0,8 21 11 - - W 1010,6 10
17.01.2019 18:00:00 1,2 0,0 22 12 43 23 W 1009,2 6
17.01.2019 17:00:00 1,7 0,6 11 6 25 14 WSW 1009,2 20
17.01.2019 16:00:00 1,1 0,5 16 9 - - W 1008,2 4,9
17.01.2019 15:00:00 2,2 0,8 18 10 40 21 WNW 1007,1 20
17.01.2019 14:00:00 1,7 0,4 28 15 65 35 WNW 1006,1 3,0
17.01.2019 13:00:00 4,3 3,1 21 11 - - W 1004,6 10
17.01.2019 12:00:00 3,7 3,1 14 8 47 25 W 1004,2 20
17.01.2019 11:00:00 4,2 2,8 22 12 43 23 W 1003,2 8
17.01.2019 10:00:00 4,3 3,3 14 8 - - WSW 1002,8 12
17.01.2019 09:00:00 4,5 3,8 11 6 22 12 SSW 1002,6 8
17.01.2019 08:00:00 4,3 3,4 7 4 18 10 SSW 1002,7 10
17.01.2019 07:00:00 4,6 3,7 11 6 - - SW 1003,1 6
17.01.2019 06:00:00 4,6 3,8 5 3 22 12 SSW 1003,6 7
17.01.2019 05:00:00 5,3 4,4 11 6 22 12 WSW 1003,5 9
17.01.2019 04:00:00 5,4 4,7 11 6 - - WSW 1003,7 12
17.01.2019 03:00:00 5,5 4,9 11 6 22 12 W 1003,8 8
17.01.2019 02:00:00 5,1 4,7 7 4 25 14 SW 1003,6 11
17.01.2019 01:00:00 5,0 4,4 14 8 - - SW 1003,6 5
17.01.2019 00:00:00 5,0 4,1 18 10 36 19 SW 1003,6 2,7
16.01.2019 23:00:00 5,1 3,5 22 12 40 21 SSW 1003,2 8
16.01.2019 22:00:00 5,8 2,0 22 12 - - SSW 1003,6 19
16.01.2019 21:00:00 5,5 2,0 18 10 36 19 SSW 1004,0 19
16.01.2019 20:00:00 5,6 1,7 18 10 36 19 SSW 1004,6 20
16.01.2019 19:00:00 5,9 1,4 18 10 - - SSW 1005,2 10
16.01.2019 18:00:00 5,8 1,5 14 8 29 16 SW 1006,0 20
16.01.2019 17:00:00 5,8 1,3 14 8 29 16 SW 1006,3 20
16.01.2019 16:00:00 6,0 1,2 14 8 - - SSW 1006,7 20
16.01.2019 15:00:00 6,0 1,3 11 6 36 19 SW 1007,7 10
16.01.2019 14:00:00 5,8 0,9 18 10 40 21 SW 1008,7 20
16.01.2019 13:00:00 5,5 1,6 14 8 - - SW 1010,2 20
16.01.2019 12:00:00 5,5 1,7 14 8 32 18 SSW 1011,2 20
16.01.2019 11:00:00 5,5 1,8 18 10 32 18 SSW 1011,7 20
16.01.2019 10:00:00 5,5 2,5 14 8 - - SSW 1012,2 20
16.01.2019 09:00:00 5,6 2,3 18 10 32 18 SSW 1012,6 20
16.01.2019 08:00:00 5,9 2,2 18 10 32 18 SSW 1012,7 20
16.01.2019 07:00:00 6,0 2,5 18 10 - - SSW 1013,0 20
16.01.2019 06:00:00 6,0 2,8 22 12 32 18 SSW 1013,3 20
16.01.2019 05:00:00 6,1 3,4 18 10 25 14 SSW 1014,1 20
16.01.2019 04:00:00 6,2 3,7 14 8 - - SSW 1014,8 20
16.01.2019 03:00:00 6,1 4,1 14 8 32 18 SW 1015,6 20
16.01.2019 02:00:00 5,5 5,0 13 7 22 12 SSW 1016,1 10
16.01.2019 01:00:00 5,8 5,0 13 7 - - SW 1016,6 8
16.01.2019 00:00:00 6,0 5,3 14 8 29 16 SW 1017,0 3,5
15.01.2019 23:00:00 6,0 5,3 14 8 29 16 SW 1017,5 7
15.01.2019 22:00:00 6,5 4,5 11 6 - - SW 1017,7 19
15.01.2019 21:00:00 6,6 4,1 11 6 25 14 SW 1017,8 20
15.01.2019 20:00:00 6,5 3,8 11 6 25 14 SW 1018,5 20
15.01.2019 19:00:00 6,5 3,5 7 4 - - SW 1018,5 15
15.01.2019 18:00:00 6,8 3,5 14 8 25 14 WSW 1018,4 15
15.01.2019 17:00:00 6,9 3,5 16 9 25 14 WSW 1018,7 10
15.01.2019 16:00:00 7,0 3,6 14 8 - - WSW 1019,0 20
15.01.2019 15:00:00 7,0 3,9 18 10 32 18 WSW 1019,2 15
15.01.2019 14:00:00 7,0 3,2 14 8 36 19 WSW 1019,6 15
15.01.2019 13:00:00 7,1 3,0 18 10 - - WSW 1019,7 15
15.01.2019 12:00:00 7,0 2,5 18 10 29 16 WSW 1020,2 15
15.01.2019 11:00:00 6,0 3,1 11 6 25 14 WSW 1020,7 15
15.01.2019 10:00:00 4,9 3,2 7 4 - - SW 1020,7 12
15.01.2019 09:00:00 4,3 3,2 11 6 18 10 SW 1020,7 15
15.01.2019 08:00:00 4,2 3,2 11 6 18 10 SW 1020,7 15
15.01.2019 07:00:00 4,3 3,1 11 6 - - SW 1020,8 15
15.01.2019 06:00:00 3,7 2,8 11 6 18 10 SW 1021,1 8
15.01.2019 05:00:00 3,2 2,4 7 4 14 8 SW 1021,7 8
15.01.2019 04:00:00 3,1 2,3 11 6 - - SW 1022,0 10
15.01.2019 03:00:00 3,4 2,6 7 4 14 8 SW 1022,2 9
15.01.2019 02:00:00 3,4 2,7 7 4 14 8 SW 1022,2 10
15.01.2019 01:00:00 3,5 2,4 11 6 - - WSW 1022,2 20
15.01.2019 00:00:00 3,7 2,7 11 6 14 8 W 1022,2 19
14.01.2019 23:00:00 3,9 2,0 11 6 14 8 W 1022,2 20
14.01.2019 22:00:00 3,7 1,6 7 4 - - WSW 1021,8 20
14.01.2019 21:00:00 4,0 1,2 7 4 14 8 W 1021,8 20
14.01.2019 20:00:00 4,0 0,8 11 6 18 10 WNW 1021,5 10
14.01.2019 19:00:00 3,8 0,3 11 6 - - WNW 1020,8 18
14.01.2019 18:00:00 4,4 0,0 14 8 18 10 NW 1020,2 18
14.01.2019 17:00:00 4,2 1,0 7 4 29 16 NNW 1019,8 18
14.01.2019 16:00:00 6,1 1,6 15 8 - - NW 1019,0 10
14.01.2019 15:00:00 6,0 2,1 22 12 43 23 NNW 1017,8 20
14.01.2019 14:00:00 5,5 2,0 22 12 50 27 NNW 1017,2 18
14.01.2019 13:00:00 5,4 3,1 29 16 - - N 1016,7 18
14.01.2019 12:00:00 7,0 4,3 18 10 25 14 NW 1016,0 18

tt = Température de l'air
td = dewpoint
ff = Vitesse du vent
fx = gusts
dd = Direction du vent
ppp = reduced air pressure
vv = visibility

stations d'obs. à proximité